Change the Weather History Date:

Saturday, May 18, 2013

  Actual Average Record
Temperature  
Mean Temperature 62 °F 56 °F  
Max Temperature 69 °F 69 °F 95 °F (1988)
Min Temperature 54 °F 42 °F 25 °F (2002)
Degree Days  
Heating Degree Days 3 10  
Month to date heating degree days 255 231  
Since 1 July heating degree days 9807 9309  
Cooling Degree Days 0 1  
Month to date cooling degree days 4 3  
Year to date cooling degree days 4 4  
Growing Degree Days 12 (Base 50)    
Moisture  
Dew Point 56 °F    
Average Humidity 87    
Maximum Humidity 100    
Minimum Humidity 73    
Precipitation  
Precipitation 0.04 in 0.09 in 0.93 in (2003)
Month to date precipitation 0.54 1.44  
Year to date precipitation 3.92 4.48  
Snow  
Snow 0.00 in 0.00 in - ()
Month to date snowfall 0.0 0.1  
Since 1 July snowfall 50.2 47.4  
Snow Depth 0.00 in    
Sea Level Pressure  
Sea Level Pressure 29.81 in    
Wind  
Wind Speed 9 mph (ENE)    
Max Wind Speed 20 mph    
Max Gust Speed 25 mph    
Visibility 10 miles    
Events Rain    
T = Trace of Precipitation, MM = Missing Value Source: NWS Daily Summary

Daily Weather History Graph

Daily Weather History Graph

Search for Another Location

Airport or City:

Trip Planner

Search our weather history database for the weather conditions in past years. The results will help you decide how hot, cold, wet, or windy it might be!

Date:

Astronomy

May. 18, 2013 Rise Set
Actual Time 5:46 AM CDT 9:04 PM CDT
Civil Twilight 5:08 AM CDT 9:42 PM CDT
Nautical Twilight 4:19 AM CDT 10:32 PM CDT
Astronomical Twilight 3:16 AM CDT 11:36 PM CDT
Moon 1:39 PM CDT (5/18) 2:11 AM CDT (5/18)
Length of Visible Light 16h 34m
Length of Day
15h 18m
First Quarter, 55% of the Moon is Illuminated
May 18
First Quarter
May 24
Full
May 31
Last Quarter
Jun 8
New
Jun 16
First Quarter

Hourly Weather History & Observations

Time (CDT) Temp. Dew Point Humidity Pressure Visibility Wind Dir Wind Speed Gust Speed Precip Events Conditions
12:53 AM 61.0 °F 54.0 °F 78% 29.84 in 10.0 mi SE 6.9 mph - N/A   Overcast
1:53 AM 61.0 °F 54.0 °F 78% 29.84 in 10.0 mi ESE 4.6 mph - N/A   Overcast
2:53 AM 61.0 °F 53.1 °F 75% 29.82 in 10.0 mi SE 10.4 mph - N/A   Overcast
3:53 AM 60.1 °F 54.0 °F 80% 29.83 in 10.0 mi SE 8.1 mph - N/A   Overcast
4:53 AM 59.0 °F 55.0 °F 87% 29.84 in 7.0 mi South 11.5 mph - N/A   Overcast
5:53 AM 57.0 °F 55.9 °F 96% 29.82 in 10.0 mi ESE 4.6 mph - 0.00 in   Overcast
6:48 AM 57.2 °F 53.6 °F 88% 29.81 in 10.0 mi East 8.1 mph - N/A   Scattered Clouds
6:53 AM 57.0 °F 54.0 °F 89% 29.81 in 10.0 mi East 6.9 mph - N/A   Overcast
7:53 AM 57.0 °F 53.1 °F 87% 29.81 in 10.0 mi East 11.5 mph - 0.00 in Rain Light Rain
8:13 AM 55.4 °F 53.6 °F 94% 29.82 in 6.0 mi ESE 11.5 mph - 0.01 in Rain Light Rain
8:53 AM 55.9 °F 55.0 °F 97% 29.83 in 9.0 mi SE 10.4 mph - 0.02 in Rain Light Rain
9:53 AM 57.0 °F 55.0 °F 93% 29.83 in 10.0 mi SSE 3.5 mph - 0.00 in   Overcast
10:13 AM 57.2 °F 55.4 °F 94% 29.83 in 10.0 mi SSE 3.5 mph - N/A   Overcast
10:21 AM 57.2 °F 55.4 °F 94% 29.82 in 10.0 mi SSE 3.5 mph - N/A   Overcast
10:53 AM 57.0 °F 55.0 °F 93% 29.83 in 6.0 mi Calm Calm - 0.01 in Rain Rain
11:53 AM 57.9 °F 55.9 °F 93% 29.82 in 10.0 mi ENE 5.8 mph - 0.01 in   Overcast
12:53 PM 63.0 °F 59.0 °F 87% 29.80 in 10.0 mi NE 8.1 mph - N/A   Overcast
1:49 PM 64.4 °F 59.0 °F 83% 29.79 in 10.0 mi NE 6.9 mph - N/A   Overcast
1:53 PM 64.4 °F 59.0 °F 83% 29.79 in 10.0 mi ENE 4.6 mph - N/A   Overcast
2:00 PM 66.2 °F 59.0 °F 78% 29.79 in 10.0 mi ENE 4.6 mph - N/A   Overcast
2:11 PM 64.4 °F 57.2 °F 77% 29.79 in 10.0 mi ENE 8.1 mph - N/A   Overcast
2:53 PM 64.9 °F 59.0 °F 81% 29.79 in 10.0 mi ENE 9.2 mph - N/A   Overcast
3:53 PM 66.9 °F 59.0 °F 76% 29.79 in 10.0 mi NE 10.4 mph - N/A   Overcast
4:53 PM 69.1 °F 60.1 °F 73% 29.78 in 10.0 mi NNE 11.5 mph - N/A   Mostly Cloudy
5:53 PM 66.9 °F 59.0 °F 76% 29.80 in 10.0 mi NNE 12.7 mph - N/A   Overcast
6:53 PM 64.9 °F 57.9 °F 78% 29.79 in 10.0 mi North 12.7 mph - N/A   Mostly Cloudy
7:53 PM 64.0 °F 57.0 °F 78% 29.79 in 10.0 mi North 9.2 mph - N/A   Overcast
8:12 PM 62.6 °F 57.2 °F 82% 29.79 in 10.0 mi North 11.5 mph - N/A   Overcast
8:53 PM 61.0 °F 55.9 °F 83% 29.80 in 10.0 mi North 12.7 mph - N/A   Overcast
9:53 PM 57.0 °F 54.0 °F 89% 29.81 in 10.0 mi North 15.0 mph - N/A   Mostly Cloudy
10:53 PM 55.9 °F 53.1 °F 90% 29.82 in 10.0 mi North 11.5 mph - N/A   Mostly Cloudy
11:53 PM 55.0 °F 52.0 °F 89% 29.80 in 10.0 mi North 13.8 mph - N/A   Mostly Cloudy